カタログに戻る

KUIPER-00086

運用中通信LEO
NORAD 64832·PAYLOAD·🇺🇸 United States

打ち上げ Jul 16, 2025 から Cape Canaveral Space Force Station

Loading…

次のパス (今後24時間)

TLE

最新Source: CelesTrak SupGP

元期: Sep 15, 2026, 02:35 UTC

1 64832C 25151S   26258.10810185  .00004143  00000+0  54246-3 0  2587
2 64832  51.8996 180.5076 0000977  88.8095  46.9208 14.79918906    15

AllMySatでKUIPER-00086をリアルタイム追跡

Download on the App Store